IGO862 OMDB-VAAH

Flight info

Callsign IGO862
Flight time 2h 19m
Altitude 34000
Route IVURO M677 LALDO B505 NADSO B524 ALPOR M504 TELEM N893 VASLA VASLA1A
Aircraft A21N/M-SDE2E3FGHIRWXY/LB1

Departure

Time 2026-04-26 09:07
Airport Dubai International Airport (OMDB)

Arrival

Time 2026-04-26 11:27
Airport Sardar Vallabh Patel International Airport (VAAH)
Time Latitude Longitude Altitude Speed Heading
2026-04-26 08:39 25.24416 55.37208 28 ft 0 kts 210°
2026-04-26 08:53 25.24427 55.37215 34 ft 2 kts 210°
2026-04-26 08:54 25.24441 55.37224 34 ft 2 kts 210°
2026-04-26 08:54 25.24455 55.37233 33 ft 2 kts 210°
2026-04-26 08:54 25.24469 55.37242 32 ft 2 kts 210°
2026-04-26 08:54 25.24483 55.37251 32 ft 2 kts 210°
2026-04-26 08:55 25.24497 55.37261 31 ft 2 kts 210°
2026-04-26 08:55 25.24511 55.37270 31 ft 2 kts 210°
2026-04-26 08:55 25.24526 55.37279 34 ft 2 kts 195°
2026-04-26 08:55 25.24537 55.37281 32 ft 0 kts 141°
2026-04-26 08:56 25.24536 55.37281 33 ft 0 kts 143°
2026-04-26 08:56 25.24518 55.37286 31 ft 1 kts 162°
2026-04-26 08:57 25.24512 55.37291 32 ft 3 kts 150°
2026-04-26 08:57 25.24508 55.37300 32 ft 0 kts 122°
2026-04-26 08:59 25.24493 55.37318 35 ft 7 kts 131°
2026-04-26 08:59 25.24449 55.37393 37 ft 16 kts 122°
2026-04-26 09:00 25.24381 55.37516 38 ft 19 kts 121°
2026-04-26 09:00 25.24321 55.37622 39 ft 14 kts 121°
2026-04-26 09:00 25.24272 55.37710 41 ft 13 kts 121°
2026-04-26 09:00 25.24295 55.37791 42 ft 12 kts 35°
2026-04-26 09:01 25.24361 55.37840 42 ft 4 kts 34°
2026-04-26 09:02 25.24365 55.37844 43 ft 3 kts 34°
2026-04-26 09:02 25.24394 55.37865 43 ft 7 kts 34°
2026-04-26 09:02 25.24445 55.37904 45 ft 11 kts 34°
2026-04-26 09:03 25.24516 55.37958 46 ft 14 kts 33°
2026-04-26 09:03 25.24603 55.38003 43 ft 6 kts 327°
2026-04-26 09:03 25.24630 55.37974 43 ft 9 kts 314°
2026-04-26 09:03 25.24680 55.37958 41 ft 1 kts 17°
2026-04-26 09:04 25.24691 55.37968 40 ft 5 kts 33°
2026-04-26 09:04 25.24697 55.37972 40 ft 0 kts 32°
2026-04-26 09:05 25.24697 55.37973 40 ft 1 kts 32°
2026-04-26 09:05 25.24750 55.38008 40 ft 9 kts 31°
2026-04-26 09:06 25.24800 55.38026 41 ft 6 kts 346°
2026-04-26 09:06 25.24819 55.37994 40 ft 6 kts 299°
2026-04-26 09:06 25.24986 55.37692 39 ft 89 kts 301°
2026-04-26 09:06 25.25445 55.36846 48 ft 166 kts 300°
2026-04-26 09:07 25.26105 55.35605 579 ft 204 kts 300°
2026-04-26 09:07 25.26845 55.34232 1275 ft 195 kts 301°
2026-04-26 09:07 25.27546 55.32947 1532 ft 202 kts 301°
2026-04-26 09:07 25.28325 55.31558 2213 ft 225 kts 302°
2026-04-26 09:08 25.29192 55.30043 3239 ft 241 kts 302°
2026-04-26 09:08 25.30118 55.28440 4304 ft 255 kts 303°
2026-04-26 09:08 25.31394 55.27050 5379 ft 264 kts 332°
2026-04-26 09:08 25.33168 55.26525 6527 ft 269 kts
2026-04-26 09:09 25.34990 55.27023 7618 ft 275 kts 30°
2026-04-26 09:09 25.36415 55.28439 8677 ft 281 kts 56°
2026-04-26 09:09 25.37426 55.30318 9312 ft 289 kts 61°
2026-04-26 09:09 25.38396 55.32265 9677 ft 289 kts 59°
2026-04-26 09:10 25.39509 55.34128 10239 ft 291 kts 52°
2026-04-26 09:10 25.40844 55.35816 11223 ft 292 kts 45°
2026-04-26 09:10 25.42355 55.37324 12194 ft 296 kts 38°
2026-04-26 09:10 25.44027 55.38699 13135 ft 301 kts 34°
2026-04-26 09:11 25.45806 55.39949 14047 ft 305 kts 30°
2026-04-26 09:11 25.47591 55.41258 14935 ft 310 kts 40°
2026-04-26 09:11 25.49173 55.42903 15786 ft 315 kts 46°
2026-04-26 09:11 25.50648 55.44712 16621 ft 319 kts 49°
2026-04-26 09:12 25.51968 55.46700 17425 ft 323 kts 65°
2026-04-26 09:12 25.52550 55.49100 18183 ft 327 kts 89°
2026-04-26 09:12 25.52197 55.51584 18926 ft 330 kts 111°
2026-04-26 09:12 25.51234 55.53912 19649 ft 335 kts 118°
2026-04-26 09:13 25.50095 55.56178 20371 ft 339 kts 121°
2026-04-26 09:13 25.48871 55.58427 21089 ft 343 kts 122°
2026-04-26 09:13 25.47599 55.60672 21764 ft 347 kts 122°
2026-04-26 09:13 25.46293 55.62934 22433 ft 350 kts 123°
2026-04-26 09:14 25.44971 55.65212 23077 ft 354 kts 122°
2026-04-26 09:14 25.43759 55.67607 23717 ft 358 kts 116°
2026-04-26 09:14 25.42755 55.70136 24307 ft 362 kts 111°
2026-04-26 09:14 25.41921 55.72779 24911 ft 365 kts 107°
2026-04-26 09:15 25.41234 55.75497 25496 ft 369 kts 104°
2026-04-26 09:15 25.40611 55.78262 26048 ft 372 kts 103°
2026-04-26 09:15 25.40016 55.81068 26612 ft 376 kts 103°
2026-04-26 09:15 25.39432 55.83899 27151 ft 379 kts 103°
2026-04-26 09:16 25.38851 55.86745 27673 ft 382 kts 103°
2026-04-26 09:16 25.38270 55.89590 28177 ft 386 kts 103°
2026-04-26 09:16 25.37665 55.92494 28672 ft 389 kts 103°
2026-04-26 09:16 25.37035 55.95461 29167 ft 392 kts 103°
2026-04-26 09:17 25.36406 55.98400 29637 ft 395 kts 103°
2026-04-26 09:17 25.35768 56.01366 30094 ft 398 kts 103°
2026-04-26 09:17 25.35132 56.04321 30539 ft 402 kts 103°
2026-04-26 09:17 25.34483 56.07345 30969 ft 405 kts 103°
2026-04-26 09:18 25.33832 56.10384 31377 ft 408 kts 103°
2026-04-26 09:18 25.33265 56.13474 31779 ft 411 kts 99°
2026-04-26 09:18 25.32834 56.16614 32191 ft 414 kts 97°
2026-04-26 09:18 25.32474 56.19774 32581 ft 417 kts 96°
2026-04-26 09:19 25.32152 56.22979 32933 ft 421 kts 96°
2026-04-26 09:19 25.31854 56.26219 33327 ft 423 kts 95°
2026-04-26 09:19 25.31574 56.29458 33751 ft 424 kts 95°
2026-04-26 09:19 25.31304 56.32700 34136 ft 426 kts 95°
2026-04-26 09:20 25.31048 56.35973 34553 ft 427 kts 94°
2026-04-26 09:20 25.30852 56.39220 34797 ft 423 kts 93°
2026-04-26 09:20 25.30699 56.42488 34917 ft 427 kts 92°
2026-04-26 09:21 25.30460 56.49110 34981 ft 434 kts 92°
2026-04-26 09:21 25.30259 56.55755 34999 ft 430 kts 95°
2026-04-26 09:21 25.29710 56.58989 35012 ft 429 kts 107°
2026-04-26 09:22 25.28799 56.62093 35004 ft 431 kts 109°
2026-04-26 09:22 25.26678 56.68348 35000 ft 431 kts 111°
2026-04-26 09:23 25.24475 56.74446 35002 ft 429 kts 112°
2026-04-26 09:23 25.22210 56.80571 34996 ft 431 kts 112°
2026-04-26 09:24 25.19891 56.86766 34998 ft 447 kts 112°
2026-04-26 09:24 25.18680 56.89983 35003 ft 460 kts 112°
2026-04-26 09:24 25.17436 56.93276 34993 ft 472 kts 112°
2026-04-26 09:24 25.16147 56.96679 34998 ft 484 kts 112°
2026-04-26 09:25 25.14830 57.00149 34997 ft 493 kts 113°
2026-04-26 09:25 25.12186 57.07098 34994 ft 489 kts 113°
2026-04-26 09:26 25.09566 57.13971 35004 ft 485 kts 113°
2026-04-26 09:26 25.06945 57.20831 34998 ft 487 kts 113°
2026-04-26 09:27 25.04296 57.27752 35000 ft 487 kts 113°
2026-04-26 09:27 25.01668 57.34606 35002 ft 486 kts 113°
2026-04-26 09:28 24.99043 57.41442 35001 ft 487 kts 113°
2026-04-26 09:28 24.96395 57.48325 35000 ft 487 kts 113°
2026-04-26 09:29 24.93754 57.55180 34995 ft 486 kts 113°
2026-04-26 09:29 24.91105 57.62044 35000 ft 487 kts 113°
2026-04-26 09:30 24.88451 57.68915 35004 ft 487 kts 113°
2026-04-26 09:30 24.85805 57.75757 35003 ft 486 kts 113°
2026-04-26 09:31 24.83509 57.82684 35006 ft 487 kts 105°
2026-04-26 09:31 24.81832 57.89940 34995 ft 487 kts 103°
2026-04-26 09:32 24.80297 57.97174 34996 ft 486 kts 103°
2026-04-26 09:32 24.78792 58.04439 35004 ft 486 kts 103°
2026-04-26 09:33 24.77295 58.11709 35006 ft 487 kts 103°
2026-04-26 09:33 24.75803 58.18969 35004 ft 486 kts 103°
2026-04-26 09:34 24.74308 58.26236 34997 ft 486 kts 103°
2026-04-26 09:34 24.73064 58.32272 34999 ft 487 kts 103°
2026-04-26 09:35 24.71322 58.40716 35000 ft 486 kts 103°
2026-04-26 09:35 24.70068 58.46781 34998 ft 486 kts 103°
2026-04-26 09:36 24.68563 58.54040 34994 ft 487 kts 103°
2026-04-26 09:36 24.67054 58.61310 34999 ft 487 kts 103°
2026-04-26 09:37 24.65542 58.68570 35000 ft 486 kts 103°
2026-04-26 09:37 24.64037 58.75781 34999 ft 487 kts 103°
2026-04-26 09:38 24.62519 58.83035 35005 ft 487 kts 103°
2026-04-26 09:38 24.60996 58.90298 35000 ft 486 kts 103°
2026-04-26 09:39 24.59475 58.97533 35002 ft 487 kts 103°
2026-04-26 09:39 24.57945 59.04790 35001 ft 487 kts 103°
2026-04-26 09:40 24.56424 59.11988 34995 ft 486 kts 103°
2026-04-26 09:40 24.54889 59.19232 35002 ft 487 kts 103°
2026-04-26 09:41 24.53349 59.26479 35003 ft 487 kts 103°
2026-04-26 09:41 24.51804 59.33722 35002 ft 486 kts 103°
2026-04-26 09:42 24.50269 59.40905 35002 ft 486 kts 103°
2026-04-26 09:42 24.48717 59.48145 35000 ft 487 kts 103°
2026-04-26 09:43 24.47163 59.55384 35004 ft 486 kts 103°
2026-04-26 09:43 24.45607 59.62612 35002 ft 486 kts 103°
2026-04-26 09:44 24.44044 59.69854 34996 ft 487 kts 103°
2026-04-26 09:44 24.42481 59.77080 35006 ft 486 kts 103°
2026-04-26 09:45 24.40926 59.84252 35005 ft 486 kts 103°
2026-04-26 09:45 24.39354 59.91485 35007 ft 487 kts 103°
2026-04-26 09:46 24.37779 59.98711 34995 ft 487 kts 103°
2026-04-26 09:46 24.36202 60.05931 34999 ft 486 kts 103°
2026-04-26 09:47 24.34624 60.13142 34999 ft 487 kts 103°
2026-04-26 09:47 24.33041 60.20361 34999 ft 487 kts 103°
2026-04-26 09:48 24.31465 60.27530 35003 ft 486 kts 103°
2026-04-26 09:48 24.29876 60.34739 34996 ft 487 kts 103°
2026-04-26 09:49 24.28283 60.41950 34999 ft 487 kts 103°
2026-04-26 09:49 24.26687 60.49159 35004 ft 486 kts 104°
2026-04-26 09:50 24.25090 60.56357 34996 ft 487 kts 104°
2026-04-26 09:50 24.23484 60.63577 34996 ft 487 kts 104°
2026-04-26 09:51 24.21879 60.70776 34999 ft 486 kts 104°
2026-04-26 09:51 24.20275 60.77963 34999 ft 486 kts 104°
2026-04-26 09:52 24.18665 60.85168 35007 ft 487 kts 104°
2026-04-26 09:52 24.16258 60.95909 34995 ft 486 kts 104°
2026-04-26 09:53 24.14642 61.03102 34998 ft 487 kts 104°
2026-04-26 09:53 24.13019 61.10308 35000 ft 487 kts 104°
2026-04-26 09:54 24.11394 61.17502 35002 ft 486 kts 104°
2026-04-26 09:54 24.09769 61.24684 35006 ft 486 kts 104°
2026-04-26 09:55 24.08304 61.31927 34999 ft 487 kts 98°
2026-04-26 09:55 24.07615 61.39291 34997 ft 486 kts 95°
2026-04-26 09:56 24.07108 61.46675 35002 ft 486 kts 94°
2026-04-26 09:56 24.06642 61.54066 34997 ft 487 kts 94°
2026-04-26 09:57 24.06188 61.61417 34997 ft 487 kts 94°
2026-04-26 09:57 24.05733 61.68808 34997 ft 486 kts 94°
2026-04-26 09:58 24.05278 61.76190 35003 ft 487 kts 94°
2026-04-26 09:58 24.04821 61.83574 35002 ft 487 kts 94°
2026-04-26 09:59 24.04362 61.90938 34996 ft 486 kts 94°
2026-04-26 09:59 24.03898 61.98327 35006 ft 486 kts 94°
2026-04-26 10:00 24.03431 62.05717 34999 ft 487 kts 94°
2026-04-26 10:00 24.02961 62.13111 35003 ft 486 kts 94°
2026-04-26 10:01 24.02488 62.20486 35006 ft 486 kts 94°
2026-04-26 10:01 24.02011 62.27876 35004 ft 487 kts 94°
2026-04-26 10:02 24.01534 62.35212 35001 ft 486 kts 94°
2026-04-26 10:02 24.01051 62.42589 35001 ft 486 kts 94°
2026-04-26 10:03 24.00564 62.49974 34997 ft 487 kts 94°
2026-04-26 10:03 24.00071 62.57389 35005 ft 487 kts 94°
2026-04-26 10:04 23.99578 62.64758 35003 ft 486 kts 94°
2026-04-26 10:04 23.99084 62.72094 35000 ft 487 kts 94°
2026-04-26 10:05 23.98583 62.79478 35007 ft 487 kts 94°
2026-04-26 10:05 23.98080 62.86855 35005 ft 486 kts 94°
2026-04-26 10:06 23.97573 62.94233 34997 ft 487 kts 94°
2026-04-26 10:06 23.97061 63.01623 35001 ft 487 kts 94°
2026-04-26 10:07 23.96545 63.09003 34997 ft 486 kts 94°
2026-04-26 10:07 23.96028 63.16366 34997 ft 487 kts 94°
2026-04-26 10:08 23.95504 63.23761 35006 ft 487 kts 94°
2026-04-26 10:08 23.94978 63.31147 35000 ft 486 kts 94°
2026-04-26 10:09 23.94453 63.38472 35003 ft 486 kts 94°
2026-04-26 10:09 23.93920 63.45848 35007 ft 487 kts 94°
2026-04-26 10:10 23.93384 63.53225 35000 ft 486 kts 95°
2026-04-26 10:10 23.92845 63.60584 34997 ft 486 kts 95°
2026-04-26 10:11 23.92302 63.67959 34997 ft 487 kts 95°
2026-04-26 10:11 23.91755 63.75342 35004 ft 486 kts 95°
2026-04-26 10:12 23.91206 63.82710 34997 ft 486 kts 95°
2026-04-26 10:12 23.90655 63.90076 35006 ft 487 kts 95°
2026-04-26 10:13 23.90097 63.97452 34997 ft 487 kts 95°
2026-04-26 10:13 23.89537 64.04817 34997 ft 486 kts 95°
2026-04-26 10:14 23.88972 64.12194 34998 ft 487 kts 95°
2026-04-26 10:14 23.88407 64.19519 34997 ft 487 kts 95°
2026-04-26 10:15 23.87836 64.26889 34997 ft 486 kts 95°
2026-04-26 10:15 23.87261 64.34252 35000 ft 487 kts 95°
2026-04-26 10:16 23.86681 64.41634 34998 ft 487 kts 95°
2026-04-26 10:16 23.86100 64.48992 35006 ft 486 kts 95°
2026-04-26 10:17 23.85515 64.56350 34997 ft 487 kts 95°
2026-04-26 10:17 23.84929 64.63674 34997 ft 487 kts 95°
2026-04-26 10:18 23.84336 64.71043 34996 ft 486 kts 95°
2026-04-26 10:18 23.83738 64.78411 35002 ft 486 kts 95°
2026-04-26 10:19 23.83467 64.85793 35008 ft 487 kts 90°
2026-04-26 10:19 23.83443 64.93195 35000 ft 486 kts 90°
2026-04-26 10:20 23.83464 64.99331 34996 ft 486 kts 90°
2026-04-26 10:20 23.83506 65.07923 34997 ft 487 kts 90°
2026-04-26 10:21 23.83543 65.15326 34997 ft 487 kts 90°
2026-04-26 10:21 23.83578 65.22705 34997 ft 486 kts 90°
2026-04-26 10:22 23.83609 65.30095 35003 ft 487 kts 90°
2026-04-26 10:22 23.83636 65.37492 34996 ft 487 kts 90°
2026-04-26 10:23 23.83660 65.44889 34997 ft 486 kts 90°
2026-04-26 10:23 23.83680 65.52283 34998 ft 487 kts 90°
2026-04-26 10:24 23.83694 65.58428 35005 ft 487 kts 90°
2026-04-26 10:24 23.83708 65.65821 35005 ft 486 kts 90°
2026-04-26 10:25 23.83718 65.73202 34991 ft 486 kts 90°
2026-04-26 10:25 23.83722 65.76896 34746 ft 487 kts 90°
2026-04-26 10:25 23.83725 65.80589 34013 ft 486 kts 90°
2026-04-26 10:26 23.83727 65.84322 33546 ft 495 kts 90°
2026-04-26 10:26 23.83728 65.88080 33236 ft 492 kts 90°
2026-04-26 10:26 23.83729 65.91792 33103 ft 487 kts 90°
2026-04-26 10:26 23.83728 65.95498 33047 ft 488 kts 90°
2026-04-26 10:27 23.83724 66.02929 33012 ft 488 kts 90°
2026-04-26 10:27 23.83716 66.10274 33007 ft 483 kts 90°
2026-04-26 10:28 23.83705 66.17641 33004 ft 486 kts 90°
2026-04-26 10:28 23.83691 66.25021 33003 ft 485 kts 90°
2026-04-26 10:29 23.83673 66.32325 33003 ft 485 kts 90°
2026-04-26 10:29 23.83651 66.39702 33002 ft 486 kts 90°
2026-04-26 10:30 23.83626 66.47079 33001 ft 484 kts 90°
2026-04-26 10:30 23.83598 66.54438 33002 ft 485 kts 90°
2026-04-26 10:31 23.83565 66.61815 33001 ft 486 kts 90°
2026-04-26 10:31 23.83529 66.69190 33000 ft 484 kts 90°
2026-04-26 10:32 23.83490 66.76554 33002 ft 485 kts 90°
2026-04-26 10:32 23.83446 66.83885 33001 ft 486 kts 90°
2026-04-26 10:33 23.83399 66.91263 33000 ft 484 kts 90°
2026-04-26 10:33 23.83539 66.98617 33005 ft 485 kts 84°
2026-04-26 10:34 23.84486 67.05919 33000 ft 486 kts 81°
2026-04-26 10:34 23.85619 67.13187 33000 ft 484 kts 80°
2026-04-26 10:35 23.86794 67.20438 33002 ft 485 kts 80°
2026-04-26 10:35 23.87980 67.27689 33001 ft 486 kts 80°
2026-04-26 10:36 23.89169 67.34946 33000 ft 484 kts 80°
2026-04-26 10:36 23.90354 67.42191 33001 ft 485 kts 80°
2026-04-26 10:37 23.91539 67.49452 33000 ft 486 kts 80°
2026-04-26 10:37 23.92720 67.56711 32999 ft 484 kts 80°
2026-04-26 10:38 23.93890 67.63914 33001 ft 485 kts 80°
2026-04-26 10:38 23.95066 67.71183 33000 ft 486 kts 80°
2026-04-26 10:39 23.96238 67.78442 33000 ft 484 kts 80°
2026-04-26 10:39 23.97406 67.85701 33002 ft 485 kts 80°
2026-04-26 10:40 23.98572 67.92967 33000 ft 486 kts 80°
2026-04-26 10:40 23.99734 68.00231 32999 ft 484 kts 80°
2026-04-26 10:41 24.00891 68.07493 33000 ft 485 kts 80°
2026-04-26 10:41 24.02047 68.14765 33000 ft 486 kts 80°
2026-04-26 10:42 24.03199 68.22034 33000 ft 484 kts 80°
2026-04-26 10:42 24.04338 68.29245 33000 ft 485 kts 80°
2026-04-26 10:43 24.05483 68.36523 33000 ft 486 kts 80°
2026-04-26 10:43 24.06624 68.43796 33000 ft 484 kts 80°
2026-04-26 10:44 24.07761 68.51065 33001 ft 485 kts 80°
2026-04-26 10:44 24.08896 68.58352 33000 ft 486 kts 80°
2026-04-26 10:45 24.10028 68.65644 32999 ft 484 kts 80°
2026-04-26 10:45 24.11136 68.72920 32998 ft 485 kts 83°
2026-04-26 10:46 24.11110 68.76599 33014 ft 485 kts 98°
2026-04-26 10:46 24.10476 68.80230 33008 ft 486 kts 103°
2026-04-26 10:46 24.08822 68.87399 33000 ft 485 kts 105°
2026-04-26 10:47 24.07046 68.94458 33000 ft 484 kts 105°
2026-04-26 10:47 24.05215 69.01569 33000 ft 486 kts 106°
2026-04-26 10:48 24.03372 69.08669 32998 ft 485 kts 106°
2026-04-26 10:48 24.01526 69.15752 32999 ft 485 kts 106°
2026-04-26 10:49 23.99672 69.22851 33000 ft 486 kts 106°
2026-04-26 10:49 23.99375 69.23984 33000 ft 486 kts 106°
2026-04-26 10:50 23.97879 69.29698 33000 ft 485 kts 106°
2026-04-26 10:50 23.95705 69.37977 33000 ft 485 kts 106°
2026-04-26 10:51 23.92902 69.48598 32128 ft 482 kts 105°
2026-04-26 10:51 23.91964 69.52134 32465 ft 488 kts 105°
2026-04-26 10:52 23.91016 69.55722 32603 ft 494 kts 105°
2026-04-26 10:52 23.89133 69.62847 32685 ft 475 kts 105°
2026-04-26 10:53 23.87318 69.69705 32706 ft 474 kts 105°
2026-04-26 10:53 23.85474 69.76662 32708 ft 477 kts 105°
2026-04-26 10:54 23.82707 69.87067 32713 ft 474 kts 106°
2026-04-26 10:54 23.80858 69.94002 32717 ft 476 kts 106°
2026-04-26 10:55 23.79003 70.00938 32718 ft 475 kts 106°
2026-04-26 10:55 23.77464 70.06685 32719 ft 474 kts 106°
2026-04-26 10:56 23.75295 70.14767 32723 ft 475 kts 106°
2026-04-26 10:56 23.73447 70.21635 32725 ft 474 kts 106°
2026-04-26 10:57 23.71602 70.28476 32626 ft 459 kts 106°
2026-04-26 10:57 23.70699 70.31766 32302 ft 447 kts 105°
2026-04-26 10:57 23.69820 70.34971 31875 ft 436 kts 104°
2026-04-26 10:58 23.68965 70.38114 31369 ft 428 kts 104°
2026-04-26 10:58 23.68125 70.41213 30799 ft 423 kts 104°
2026-04-26 10:58 23.67300 70.44267 30247 ft 417 kts 104°
2026-04-26 10:58 23.66486 70.47282 29685 ft 412 kts 104°
2026-04-26 10:59 23.65681 70.50262 29039 ft 407 kts 104°
2026-04-26 10:59 23.64886 70.53207 28376 ft 403 kts 104°
2026-04-26 10:59 23.64098 70.56129 27727 ft 400 kts 104°
2026-04-26 10:59 23.63317 70.59023 27086 ft 396 kts 105°
2026-04-26 11:00 23.62542 70.61887 26481 ft 393 kts 105°
2026-04-26 11:00 23.61770 70.64733 25884 ft 389 kts 105°
2026-04-26 11:00 23.61003 70.67556 25339 ft 389 kts 105°
2026-04-26 11:00 23.60228 70.70411 25034 ft 392 kts 105°
2026-04-26 11:01 23.59458 70.73229 24880 ft 383 kts 105°
2026-04-26 11:01 23.58700 70.76003 24812 ft 382 kts 105°
2026-04-26 11:01 23.57938 70.78788 24779 ft 384 kts 105°
2026-04-26 11:01 23.57174 70.81579 24759 ft 385 kts 105°
2026-04-26 11:02 23.56410 70.84370 24755 ft 384 kts 105°
2026-04-26 11:02 23.55657 70.87119 24752 ft 384 kts 105°
2026-04-26 11:02 23.54892 70.89906 24755 ft 384 kts 105°
2026-04-26 11:02 23.54115 70.92738 24750 ft 385 kts 105°
2026-04-26 11:03 23.53357 70.95494 24748 ft 384 kts 106°
2026-04-26 11:03 23.52529 70.98262 24748 ft 384 kts 108°
2026-04-26 11:03 23.51640 71.01011 24741 ft 384 kts 108°
2026-04-26 11:03 23.50724 71.03748 24739 ft 385 kts 109°
2026-04-26 11:04 23.49790 71.06482 24744 ft 385 kts 109°
2026-04-26 11:04 23.48847 71.09213 24744 ft 385 kts 109°
2026-04-26 11:04 23.47902 71.11932 24738 ft 384 kts 109°
2026-04-26 11:04 23.46951 71.14657 24739 ft 385 kts 109°
2026-04-26 11:05 23.45996 71.17385 24744 ft 386 kts 109°
2026-04-26 11:05 23.45041 71.20107 24734 ft 385 kts 109°
2026-04-26 11:05 23.44084 71.22830 24732 ft 384 kts 109°
2026-04-26 11:05 23.43127 71.25548 24740 ft 385 kts 109°
2026-04-26 11:06 23.42169 71.28269 24740 ft 385 kts 109°
2026-04-26 11:06 23.41533 71.30076 24740 ft 386 kts 109°
2026-04-26 11:06 23.40249 71.33714 24578 ft 384 kts 109°
2026-04-26 11:06 23.39293 71.36421 24096 ft 382 kts 110°
2026-04-26 11:07 23.38343 71.39113 23533 ft 380 kts 110°
2026-04-26 11:07 23.37397 71.41792 22943 ft 377 kts 110°
2026-04-26 11:07 23.36462 71.44436 22344 ft 373 kts 110°
2026-04-26 11:07 23.35532 71.47063 21752 ft 369 kts 110°
2026-04-26 11:08 23.34612 71.49657 21172 ft 366 kts 110°
2026-04-26 11:08 23.33701 71.52230 20607 ft 363 kts 110°
2026-04-26 11:08 23.32808 71.54752 20067 ft 359 kts 110°
2026-04-26 11:08 23.31901 71.57308 19515 ft 356 kts 110°
2026-04-26 11:09 23.31025 71.59779 18982 ft 353 kts 110°
2026-04-26 11:09 23.30146 71.62262 18473 ft 351 kts 110°
2026-04-26 11:09 23.29269 71.64736 17907 ft 349 kts 110°
2026-04-26 11:09 23.28399 71.67185 17330 ft 346 kts 110°
2026-04-26 11:10 23.27534 71.69621 16751 ft 344 kts 111°
2026-04-26 11:10 23.26673 71.72039 16197 ft 341 kts 111°
2026-04-26 11:10 23.25822 71.74428 15656 ft 338 kts 111°
2026-04-26 11:10 23.24975 71.76804 15120 ft 336 kts 111°
2026-04-26 11:11 23.24134 71.79162 14599 ft 333 kts 111°
2026-04-26 11:11 23.23299 71.81503 14078 ft 331 kts 111°
2026-04-26 11:11 23.22467 71.83833 13576 ft 329 kts 111°
2026-04-26 11:11 23.21643 71.86146 13027 ft 327 kts 110°
2026-04-26 11:12 23.21192 71.88543 12471 ft 324 kts 92°
2026-04-26 11:12 23.21206 71.90986 11929 ft 323 kts 88°
2026-04-26 11:12 23.21325 71.93417 11406 ft 321 kts 86°
2026-04-26 11:12 23.21483 71.95857 11046 ft 326 kts 86°
2026-04-26 11:13 23.21597 71.97470 10916 ft 320 kts 85°
2026-04-26 11:13 23.21771 71.99855 10725 ft 311 kts 85°
2026-04-26 11:13 23.21945 72.02169 10341 ft 306 kts 85°
2026-04-26 11:13 23.22182 72.05247 9711 ft 304 kts 85°
2026-04-26 11:14 23.22301 72.06756 9407 ft 303 kts 85°
2026-04-26 11:14 23.22480 72.09028 8916 ft 301 kts 85°
2026-04-26 11:14 23.22659 72.11292 8436 ft 299 kts 85°
2026-04-26 11:14 23.22836 72.13541 7950 ft 298 kts 85°
2026-04-26 11:15 23.23012 72.15781 7484 ft 297 kts 85°
2026-04-26 11:15 23.23185 72.18022 6837 ft 302 kts 85°
2026-04-26 11:15 23.23363 72.20354 5916 ft 317 kts 85°
2026-04-26 11:15 23.23545 72.22814 5405 ft 327 kts 85°
2026-04-26 11:16 23.23722 72.25261 5065 ft 322 kts 85°
2026-04-26 11:16 23.23895 72.27678 4879 ft 320 kts 85°
2026-04-26 11:16 23.24066 72.30091 4788 ft 321 kts 85°
2026-04-26 11:16 23.24239 72.32512 4683 ft 322 kts 85°
2026-04-26 11:17 23.24412 72.34929 4286 ft 319 kts 85°
2026-04-26 11:17 23.24582 72.37351 3973 ft 321 kts 85°
2026-04-26 11:17 23.24749 72.39745 3984 ft 318 kts 85°
2026-04-26 11:17 23.24921 72.42161 4007 ft 320 kts 85°
2026-04-26 11:18 23.25089 72.44566 4021 ft 321 kts 85°
2026-04-26 11:18 23.25257 72.46964 4019 ft 311 kts 85°
2026-04-26 11:18 23.25414 72.49225 4016 ft 289 kts 85°
2026-04-26 11:18 23.25560 72.51333 4019 ft 270 kts 85°
2026-04-26 11:19 23.25697 72.53338 4016 ft 264 kts 85°
2026-04-26 11:19 23.25839 72.55337 4014 ft 266 kts 85°
2026-04-26 11:19 23.25985 72.57345 4014 ft 265 kts 85°
2026-04-26 11:19 23.26133 72.59347 3841 ft 268 kts 85°
2026-04-26 11:20 23.26285 72.61354 3573 ft 264 kts 85°
2026-04-26 11:20 23.26384 72.62664 3293 ft 264 kts 85°
2026-04-26 11:20 23.26586 72.65312 2813 ft 261 kts 85°
2026-04-26 11:20 23.26594 72.67269 2431 ft 261 kts 104°
2026-04-26 11:21 23.25955 72.69113 2230 ft 259 kts 117°
2026-04-26 11:21 23.25154 72.70809 2342 ft 244 kts 119°
2026-04-26 11:21 23.24358 72.72362 2337 ft 226 kts 120°
2026-04-26 11:21 23.23612 72.73777 2327 ft 206 kts 120°
2026-04-26 11:22 23.22933 72.75045 2368 ft 185 kts 121°
2026-04-26 11:22 23.22119 72.76012 2356 ft 169 kts 157°
2026-04-26 11:22 23.20976 72.76234 2372 ft 167 kts 192°
2026-04-26 11:22 23.19957 72.75677 2353 ft 166 kts 214°
2026-04-26 11:23 23.19019 72.74949 2341 ft 164 kts 217°
2026-04-26 11:23 23.18112 72.74192 2338 ft 165 kts 219°
2026-04-26 11:23 23.17217 72.73409 2333 ft 165 kts 220°
2026-04-26 11:23 23.16341 72.72611 2327 ft 164 kts 222°
2026-04-26 11:24 23.15491 72.71780 2332 ft 165 kts 223°
2026-04-26 11:24 23.14641 72.70927 2217 ft 168 kts 224°
2026-04-26 11:24 23.13800 72.70042 1896 ft 168 kts 225°
2026-04-26 11:24 23.12980 72.69145 1569 ft 167 kts 226°
2026-04-26 11:25 23.12177 72.68241 1209 ft 166 kts 226°
2026-04-26 11:25 23.11379 72.67349 873 ft 163 kts 226°
2026-04-26 11:25 23.10592 72.66484 623 ft 156 kts 225°
2026-04-26 11:25 23.09820 72.65680 487 ft 156 kts 223°
2026-04-26 11:26 23.09026 72.64840 289 ft 162 kts 226°
2026-04-26 11:26 23.08239 72.64007 204 ft 155 kts 223°
2026-04-26 11:26 23.07525 72.63238 201 ft 121 kts 224°
2026-04-26 11:26 23.07093 72.62768 198 ft 65 kts 224°
2026-04-26 11:27 23.06798 72.62468 192 ft 42 kts 227°
2026-04-26 11:27 23.06736 72.62360 199 ft 5 kts 279°
2026-04-26 11:27 23.06758 72.62323 201 ft 3 kts 311°
2026-04-26 11:27 23.06760 72.62321 198 ft 0 kts 311°
2026-04-26 11:29 23.06793 72.62283 193 ft 17 kts 316°
2026-04-26 11:29 23.06882 72.62301 201 ft 20 kts 40°
2026-04-26 11:29 23.07032 72.62460 201 ft 39 kts 49°
2026-04-26 11:30 23.07176 72.62599 191 ft 2 kts
2026-04-26 11:30 23.07177 72.62597 191 ft 0 kts 341°
2026-04-26 11:30 23.07193 72.62568 197 ft 7 kts 307°
2026-04-26 11:30 23.07239 72.62516 206 ft 12 kts 315°
2026-04-26 11:31 23.07294 72.62496 196 ft 7 kts 24°
2026-04-26 11:31 23.07320 72.62523 202 ft 4 kts 45°
2026-04-26 11:31 23.07331 72.62537 196 ft 2 kts 47°
2026-04-26 11:31 23.07350 72.62558 204 ft 6 kts 44°
2026-04-26 11:32 23.07388 72.62561 202 ft 5 kts 14°
2026-04-26 11:32 23.07431 72.62562 200 ft 8 kts 337°
2026-04-26 11:32 23.07444 72.62549 203 ft 2 kts 316°
2026-04-26 11:32 23.07450 72.62541 203 ft 0 kts 308°
2026-04-26 11:33 23.07450 72.62540 204 ft 0 kts 308°